| time (UTC) | temp C | wind direction | speed KPH | gust KPH | rain 1hr cm | rain 24hr cm | rain mn cm | humidity % | barometer mb |
| 20260509201137 | 19 | 0.0 | 0.0 | 0.00 | 0.00 | 0.00 | 63 | 1018.3 | |
| 20260509200617 | 18 | 0.0 | 0.0 | 0.00 | 0.00 | 0.00 | 64 | 1018.4 | |
| 20260509200137 | 18 | 31 | 3.2 | 4.8 | 0.00 | 0.00 | 0.00 | 62 | 1018.5 |
| 20260509195617 | 18 | 330 | 4.8 | 6.4 | 0.00 | 0.00 | 0.00 | 63 | 1018.6 |
| 20260509195117 | 18 | 90 | 0.0 | 4.8 | 0.00 | 0.00 | 0.00 | 66 | 1018.5 |
| 20260509194638 | 18 | 32 | 4.8 | 6.4 | 0.00 | 0.00 | 0.00 | 64 | 1018.8 |
| 20260509194117 | 18 | 96 | 0.0 | 3.2 | 0.00 | 0.00 | 0.00 | 65 | 1018.8 |
| 20260509193617 | 18 | 101 | 0.0 | 1.6 | 0.00 | 0.00 | 0.00 | 65 | 1018.8 |
| 20260509193157 | 18 | 76 | 1.6 | 4.8 | 0.00 | 0.00 | 0.00 | 65 | 1019.0 |
| 20260509192617 | 18 | 131 | 3.2 | 6.4 | 0.00 | 0.00 | 0.00 | 65 | 1019.1 |
| 20260509192117 | 18 | 338 | 3.2 | 4.8 | 0.00 | 0.00 | 0.00 | 65 | 1018.9 |
| 20260509191616 | 18 | 101 | 0.0 | 1.6 | 0.00 | 0.00 | 0.00 | 67 | 1019.1 |
| 20260509191137 | 18 | 123 | 3.2 | 6.4 | 0.00 | 0.00 | 0.00 | 65 | 1019.1 |
| 20260509190638 | 18 | 97 | 1.6 | 1.6 | 0.00 | 0.00 | 0.00 | 66 | 1019.2 |
| 20260509190138 | 17 | 152 | 4.8 | 6.4 | 0.00 | 0.00 | 0.00 | 67 | 1019.2 |
| 20260509185617 | 18 | 70 | 1.6 | 4.8 | 0.00 | 0.00 | 0.00 | 66 | 1019.2 |
| 20260509185117 | 17 | 64 | 1.6 | 3.2 | 0.00 | 0.00 | 0.00 | 66 | 1019.3 |
| 20260509184657 | 17 | 87 | 1.6 | 1.6 | 0.00 | 0.00 | 0.00 | 66 | 1019.4 |
| 20260509184117 | 17 | 46 | 3.2 | 4.8 | 0.00 | 0.00 | 0.00 | 67 | 1019.5 |
| 20260509183617 | 17 | 68 | 1.6 | 6.4 | 0.00 | 0.00 | 0.00 | 67 | 1019.6 |
| 20260509183117 | 17 | 0.0 | 0.0 | 0.00 | 0.00 | 0.00 | 66 | 1019.4 | |
| 20260509182617 | 17 | 65 | 3.2 | 6.4 | 0.00 | 0.00 | 0.00 | 66 | 1019.4 |
| 20260509182117 | 17 | 97 | 1.6 | 1.6 | 0.00 | 0.00 | 0.00 | 67 | 1019.3 |
| 20260509181617 | 17 | 69 | 1.6 | 4.8 | 0.00 | 0.00 | 0.00 | 68 | 1019.5 |
| 20260509181118 | 16 | 57 | 3.2 | 6.4 | 0.00 | 0.00 | 0.00 | 68 | 1019.4 |
| 20260509180617 | 16 | 79 | 1.6 | 4.8 | 0.00 | 0.00 | 0.00 | 69 | 1019.4 |
| 20260509180117 | 16 | 97 | 0.0 | 3.2 | 0.00 | 0.00 | 0.00 | 69 | 1019.4 |
| 20260509175637 | 16 | 52 | 1.6 | 6.4 | 0.00 | 0.00 | 0.00 | 70 | 1019.5 |
| 20260509175117 | 16 | 68 | 1.6 | 3.2 | 0.00 | 0.00 | 0.00 | 69 | 1019.7 |
| 20260509174717 | 16 | 91 | 0.0 | 3.2 | 0.00 | 0.00 | 0.00 | 70 | 1019.7 |
| 20260509174116 | 16 | 86 | 0.0 | 1.6 | 0.00 | 0.00 | 0.00 | 70 | 1019.7 |
| 20260509173617 | 16 | 84 | 1.6 | 3.2 | 0.00 | 0.00 | 0.00 | 71 | 1019.6 |
| 20260509173118 | 16 | 54 | 4.8 | 9.7 | 0.00 | 0.00 | 0.00 | 72 | 1019.8 |
| 20260509172637 | 16 | 166 | 1.6 | 4.8 | 0.00 | 0.00 | 0.00 | 73 | 1019.8 |
| 20260509172117 | 16 | 59 | 3.2 | 4.8 | 0.00 | 0.00 | 0.00 | 73 | 1019.6 |
| 20260509171617 | 16 | 68 | 1.6 | 4.8 | 0.00 | 0.00 | 0.00 | 74 | 1019.8 |
| 20260509171137 | 16 | 95 | 0.0 | 1.6 | 0.00 | 0.00 | 0.00 | 74 | 1019.8 |
| 20260509170617 | 15 | 51 | 4.8 | 6.4 | 0.00 | 0.00 | 0.00 | 76 | 1019.8 |
| 20260509170117 | 15 | 7 | 3.2 | 4.8 | 0.00 | 0.00 | 0.00 | 78 | 1019.9 |
| 20260509165617 | 15 | 104 | 0.0 | 1.6 | 0.00 | 0.00 | 0.00 | 78 | 1020.1 |
| 20260509165117 | 15 | 67 | 3.2 | 4.8 | 0.00 | 0.00 | 0.00 | 79 | 1020.1 |
| 20260509164617 | 15 | 93 | 1.6 | 3.2 | 0.00 | 0.00 | 0.00 | 79 | 1020.0 |
| 20260509164117 | 14 | 80 | 1.6 | 3.2 | 0.00 | 0.00 | 0.00 | 79 | 1020.1 |
| 20260509163637 | 14 | 0.0 | 0.0 | 0.00 | 0.00 | 0.00 | 80 | 1020.2 | |
| 20260509163117 | 14 | 0.0 | 0.0 | 0.00 | 0.00 | 0.00 | 81 | 1020.3 | |
| 20260509162617 | 14 | 99 | 0.0 | 1.6 | 0.00 | 0.00 | 0.00 | 80 | 1020.2 |
| 20260509162117 | 14 | 0.0 | 0.0 | 0.00 | 0.00 | 0.00 | 81 | 1020.2 | |
| 20260509161617 | 13 | 0.0 | 0.0 | 0.00 | 0.00 | 0.00 | 82 | 1020.4 | |
| 20260509161117 | 13 | 0.0 | 0.0 | 0.00 | 0.00 | 0.00 | 82 | 1020.2 | |
| 20260509160617 | 13 | 97 | 0.0 | 1.6 | 0.00 | 0.00 | 0.00 | 83 | 1020.4 |
| 20260509160118 | 13 | 0.0 | 0.0 | 0.00 | 0.00 | 0.00 | 83 | 1020.6 | |
| 20260509155618 | 13 | 86 | 0.0 | 1.6 | 0.00 | 0.00 | 0.00 | 82 | 1020.6 |
| 20260509155117 | 13 | 0.0 | 0.0 | 0.00 | 0.00 | 0.00 | 83 | 1020.6 | |
| 20260509154617 | 13 | 0.0 | 0.0 | 0.00 | 0.00 | 0.00 | 84 | 1020.6 | |
| 20260509154117 | 12 | 0.0 | 0.0 | 0.00 | 0.00 | 0.00 | 84 | 1020.7 | |
| 20260509153637 | 12 | 0.0 | 0.0 | 0.00 | 0.00 | 0.00 | 85 | 1020.8 | |
| 20260509153117 | 12 | 0.0 | 0.0 | 0.00 | 0.00 | 0.00 | 87 | 1020.9 | |
| 20260509152616 | 12 | 0.0 | 0.0 | 0.00 | 0.00 | 0.00 | 87 | 1020.8 | |
| 20260509152137 | 12 | 0.0 | 0.0 | 0.00 | 0.00 | 0.00 | 87 | 1020.9 | |
| 20260509151618 | 12 | 0.0 | 0.0 | 0.00 | 0.00 | 0.00 | 88 | 1020.9 | |
| 20260509151137 | 11 | 0.0 | 0.0 | 0.00 | 0.00 | 0.00 | 89 | 1021.0 | |
| 20260509150617 | 11 | 0.0 | 0.0 | 0.00 | 0.00 | 0.00 | 90 | 1021.0 | |
| 20260509150117 | 11 | 0.0 | 0.0 | 0.00 | 0.00 | 0.00 | 91 | 1021.2 | |
| 20260509145617 | 11 | 0.0 | 0.0 | 0.00 | 0.00 | 0.00 | 92 | 1021.2 | |
| 20260509145117 | 11 | 0.0 | 0.0 | 0.00 | 0.00 | 0.00 | 92 | 1021.4 | |
| 20260509144637 | 10 | 0.0 | 0.0 | 0.00 | 0.00 | 0.00 | 93 | 1021.3 | |
| 20260509144136 | 10 | 0.0 | 0.0 | 0.00 | 0.00 | 0.00 | 94 | 1021.2 | |
| 20260509143617 | 10 | 0.0 | 0.0 | 0.00 | 0.00 | 0.00 | 94 | 1021.3 | |
| 20260509143117 | 10 | 0.0 | 0.0 | 0.00 | 0.00 | 0.00 | 95 | 1021.3 | |
| 20260509142617 | 10 | 0.0 | 0.0 | 0.00 | 0.00 | 0.00 | 97 | 1021.6 | |
| 20260509142117 | 9 | 0.0 | 0.0 | 0.00 | 0.00 | 0.00 | 98 | 1021.4 | |
| 20260509141617 | 9 | 0.0 | 0.0 | 0.00 | 0.00 | 0.00 | 98 | 1021.4 | |
| 20260509141117 | 8 | 0.0 | 0.0 | 0.00 | 0.00 | 0.00 | 99 | 1021.5 | |
| 20260509140657 | 8 | 0.0 | 0.0 | 0.00 | 0.00 | 0.00 | 99 | 1021.6 | |
| 20260509140117 | 8 | 0.0 | 0.0 | 0.00 | 0.00 | 0.00 | 99 | 1021.5 | |
| 20260509135617 | 8 | 0.0 | 0.0 | 0.00 | 0.00 | 0.00 | 99 | 1021.4 | |
| 20260509135118 | 8 | 0.0 | 0.0 | 0.00 | 0.00 | 0.00 | 99 | 1021.6 | |
| 20260509134618 | 8 | 0.0 | 0.0 | 0.00 | 0.00 | 0.00 | 99 | 1021.7 | |
| 20260509134117 | 8 | 0.0 | 0.0 | 0.00 | 0.00 | 0.00 | 99 | 1021.9 | |
| 20260509133617 | 8 | 0.0 | 0.0 | 0.00 | 0.00 | 0.00 | 99 | 1021.7 | |
| 20260509133117 | 8 | 0.0 | 0.0 | 0.00 | 0.00 | 0.00 | 99 | 1021.7 | |
| 20260509132617 | 8 | 0.0 | 0.0 | 0.00 | 0.00 | 0.00 | 99 | 1021.7 | |
| 20260509132117 | 7 | 0.0 | 0.0 | 0.00 | 0.00 | 0.00 | 99 | 1021.9 | |
| 20260509131617 | 8 | 0.0 | 0.0 | 0.00 | 0.00 | 0.00 | 98 | 1021.8 | |
| 20260509131117 | 8 | 0.0 | 0.0 | 0.00 | 0.00 | 0.00 | 98 | 1021.8 | |
| 20260509130618 | 8 | 0.0 | 0.0 | 0.00 | 0.00 | 0.00 | 98 | 1021.6 | |
| 20260509130118 | 8 | 0.0 | 0.0 | 0.00 | 0.00 | 0.00 | 98 | 1021.5 | |
| 20260509125617 | 8 | 0.0 | 0.0 | 0.00 | 0.00 | 0.00 | 98 | 1021.6 | |
| 20260509125117 | 8 | 0.0 | 0.0 | 0.00 | 0.00 | 0.00 | 98 | 1021.4 | |
| 20260509124617 | 8 | 0.0 | 0.0 | 0.00 | 0.00 | 0.00 | 98 | 1021.5 | |
| 20260509124117 | 8 | 0.0 | 0.0 | 0.00 | 0.00 | 0.00 | 98 | 1021.5 | |
| 20260509123617 | 8 | 0.0 | 0.0 | 0.00 | 0.00 | 0.00 | 98 | 1021.5 | |
| 20260509123117 | 8 | 0.0 | 0.0 | 0.00 | 0.00 | 0.00 | 98 | 1021.5 | |
| 20260509122617 | 8 | 0.0 | 0.0 | 0.00 | 0.00 | 0.00 | 98 | 1021.6 | |
| 20260509122117 | 8 | 0.0 | 0.0 | 0.00 | 0.00 | 0.00 | 98 | 1021.6 | |
| 20260509121618 | 8 | 0.0 | 0.0 | 0.00 | 0.00 | 0.00 | 98 | 1021.6 | |
| 20260509121157 | 8 | 0.0 | 0.0 | 0.00 | 0.00 | 0.00 | 97 | 1021.7 | |
| 20260509120617 | 8 | 0.0 | 0.0 | 0.00 | 0.00 | 0.00 | 97 | 1021.6 | |
| 20260509120117 | 8 | 0.0 | 0.0 | 0.00 | 0.00 | 0.00 | 97 | 1021.6 | |
| 20260509115617 | 8 | 0.0 | 0.0 | 0.00 | 0.00 | 0.00 | 97 | 1021.6 | |
| 20260509115117 | 8 | 0.0 | 0.0 | 0.00 | 0.00 | 0.00 | 97 | 1021.6 | |
| 20260509114617 | 8 | 0.0 | 0.0 | 0.00 | 0.00 | 0.00 | 97 | 1021.7 | |
| 20260509114117 | 8 | 0.0 | 0.0 | 0.00 | 0.00 | 0.00 | 97 | 1021.8 | |
| 20260509113618 | 8 | 0.0 | 0.0 | 0.00 | 0.00 | 0.00 | 96 | 1021.6 | |
| 20260509113118 | 8 | 0.0 | 0.0 | 0.00 | 0.00 | 0.00 | 96 | 1021.7 | |
| 20260509112618 | 8 | 0.0 | 0.0 | 0.00 | 0.00 | 0.00 | 96 | 1021.8 | |
| 20260509112117 | 8 | 0.0 | 0.0 | 0.00 | 0.00 | 0.00 | 96 | 1021.6 | |
| 20260509111617 | 8 | 0.0 | 0.0 | 0.00 | 0.00 | 0.00 | 95 | 1021.6 | |
| 20260509111117 | 8 | 0.0 | 0.0 | 0.00 | 0.00 | 0.00 | 95 | 1021.7 | |
| 20260509110617 | 8 | 0.0 | 0.0 | 0.00 | 0.00 | 0.00 | 94 | 1021.7 | |
| 20260509110137 | 9 | 0.0 | 0.0 | 0.00 | 0.00 | 0.00 | 94 | 1021.8 | |
| 20260509105617 | 9 | 0.0 | 0.0 | 0.00 | 0.00 | 0.00 | 94 | 1021.8 | |
| 20260509105158 | 9 | 0.0 | 0.0 | 0.00 | 0.00 | 0.00 | 94 | 1021.7 | |
| 20260509104638 | 9 | 0.0 | 0.0 | 0.00 | 0.00 | 0.00 | 93 | 1021.9 | |
| 20260509104138 | 10 | 0.0 | 0.0 | 0.00 | 0.00 | 0.00 | 93 | 1021.7 | |
| 20260509103638 | 10 | 0.0 | 0.0 | 0.00 | 0.00 | 0.00 | 93 | 1021.7 | |
| 20260509103117 | 10 | 0.0 | 0.0 | 0.00 | 0.00 | 0.00 | 92 | 1021.9 | |
| 20260509102617 | 10 | 0.0 | 0.0 | 0.00 | 0.00 | 0.00 | 92 | 1021.9 | |
| 20260509102117 | 10 | 0.0 | 0.0 | 0.00 | 0.00 | 0.00 | 92 | 1021.9 | |
| 20260509101617 | 10 | 0.0 | 0.0 | 0.00 | 0.00 | 0.00 | 91 | 1021.7 | |
| 20260509101117 | 10 | 0.0 | 0.0 | 0.00 | 0.00 | 0.00 | 90 | 1021.8 | |
| 20260509100637 | 10 | 0.0 | 0.0 | 0.00 | 0.00 | 0.00 | 90 | 1021.9 | |
| 20260509100117 | 11 | 0.0 | 0.0 | 0.00 | 0.00 | 0.00 | 89 | 1021.9 | |
| 20260509095617 | 11 | 0.0 | 0.0 | 0.00 | 0.00 | 0.00 | 89 | 1022.1 | |
| 20260509095117 | 11 | 0.0 | 0.0 | 0.00 | 0.00 | 0.00 | 89 | 1022.1 | |
| 20260509094617 | 11 | 0.0 | 0.0 | 0.00 | 0.00 | 0.00 | 89 | 1022.1 | |
| 20260509094117 | 11 | 0.0 | 0.0 | 0.00 | 0.00 | 0.00 | 88 | 1022.0 | |
| 20260509093617 | 11 | 0.0 | 0.0 | 0.00 | 0.00 | 0.00 | 88 | 1022.0 | |
| 20260509093117 | 11 | 0.0 | 0.0 | 0.00 | 0.00 | 0.00 | 88 | 1022.2 | |
| 20260509092616 | 11 | 0.0 | 0.0 | 0.00 | 0.00 | 0.00 | 88 | 1022.0 | |
| 20260509092117 | 11 | 0.0 | 0.0 | 0.00 | 0.00 | 0.00 | 88 | 1022.2 | |
| 20260509091638 | 11 | 0.0 | 0.0 | 0.00 | 0.00 | 0.00 | 87 | 1022.2 | |
| 20260509091118 | 11 | 0.0 | 0.0 | 0.00 | 0.00 | 0.00 | 87 | 1022.3 | |
| 20260509090617 | 11 | 0.0 | 0.0 | 0.00 | 0.00 | 0.00 | 87 | 1022.4 | |
| 20260509090157 | 11 | 0.0 | 0.0 | 0.00 | 0.00 | 0.00 | 87 | 1022.3 | |
| 20260509085617 | 11 | 0.0 | 0.0 | 0.00 | 0.00 | 0.00 | 86 | 1022.4 | |
| 20260509085137 | 11 | 0.0 | 0.0 | 0.00 | 0.00 | 0.00 | 87 | 1022.1 | |
| 20260509084617 | 11 | 0.0 | 0.0 | 0.00 | 0.00 | 0.00 | 87 | 1022.3 | |
| 20260509084116 | 11 | 0.0 | 0.0 | 0.00 | 0.00 | 0.00 | 86 | 1022.4 | |
| 20260509083618 | 11 | 0.0 | 0.0 | 0.00 | 0.00 | 0.00 | 86 | 1022.1 | |
| 20260509083117 | 11 | 0.0 | 0.0 | 0.00 | 0.00 | 0.00 | 86 | 1022.4 | |
| 20260509082638 | 11 | 0.0 | 0.0 | 0.00 | 0.00 | 0.00 | 86 | 1022.3 | |
| 20260509082137 | 11 | 0.0 | 0.0 | 0.00 | 0.00 | 0.00 | 86 | 1022.3 | |
| 20260509081617 | 11 | 0.0 | 0.0 | 0.00 | 0.00 | 0.00 | 86 | 1022.4 | |
| 20260509081117 | 11 | 0.0 | 0.0 | 0.00 | 0.00 | 0.00 | 85 | 1022.3 | |
| 20260509080617 | 11 | 0.0 | 0.0 | 0.00 | 0.00 | 0.00 | 86 | 1022.2 | |
| 20260509080137 | 11 | 0.0 | 0.0 | 0.00 | 0.00 | 0.00 | 86 | 1022.3 | |
| 20260509075617 | 11 | 0.0 | 0.0 | 0.00 | 0.00 | 0.00 | 85 | 1022.2 | |
| 20260509075118 | 11 | 0.0 | 0.0 | 0.00 | 0.00 | 0.00 | 85 | 1022.3 | |
| 20260509074618 | 11 | 0.0 | 0.0 | 0.00 | 0.00 | 0.00 | 85 | 1022.2 | |
| 20260509074117 | 11 | 0.0 | 0.0 | 0.00 | 0.00 | 0.00 | 84 | 1022.1 | |
| 20260509073637 | 11 | 0.0 | 0.0 | 0.00 | 0.00 | 0.00 | 84 | 1022.1 | |
| 20260509073117 | 11 | 0.0 | 0.0 | 0.00 | 0.00 | 0.00 | 85 | 1022.1 | |
| 20260509072617 | 11 | 0.0 | 0.0 | 0.00 | 0.00 | 0.00 | 85 | 1022.2 | |
| 20260509072117 | 11 | 0.0 | 0.0 | 0.00 | 0.00 | 0.00 | 84 | 1022.2 | |
| 20260509071637 | 11 | 0.0 | 0.0 | 0.00 | 0.00 | 0.00 | 85 | 1022.1 | |
| 20260509071117 | 11 | 0.0 | 0.0 | 0.00 | 0.00 | 0.00 | 84 | 1022.1 | |
| 20260509070617 | 11 | 0.0 | 0.0 | 0.00 | 0.00 | 0.00 | 84 | 1022.0 | |
| 20260509070117 | 11 | 0.0 | 0.0 | 0.00 | 0.00 | 0.00 | 84 | 1022.1 | |
| 20260509065617 | 11 | 0.0 | 0.0 | 0.00 | 0.00 | 0.00 | 84 | 1022.3 | |
| 20260509065117 | 11 | 0.0 | 0.0 | 0.00 | 0.00 | 0.00 | 84 | 1022.1 | |
| 20260509064617 | 11 | 0.0 | 0.0 | 0.00 | 0.00 | 0.00 | 85 | 1022.1 | |
| 20260509064117 | 11 | 0.0 | 0.0 | 0.00 | 0.00 | 0.00 | 84 | 1022.0 | |
| 20260509063637 | 11 | 0.0 | 0.0 | 0.00 | 0.00 | 0.00 | 85 | 1022.1 | |
| 20260509063117 | 11 | 0.0 | 0.0 | 0.00 | 0.00 | 0.00 | 85 | 1022.0 | |
| 20260509062616 | 11 | 0.0 | 0.0 | 0.00 | 0.00 | 0.00 | 85 | 1021.9 | |
| 20260509062118 | 11 | 0.0 | 0.0 | 0.00 | 0.00 | 0.00 | 85 | 1021.9 | |
| 20260509061617 | 11 | 0.0 | 0.0 | 0.00 | 0.00 | 0.00 | 86 | 1021.9 | |
| 20260509061117 | 11 | 0.0 | 0.0 | 0.00 | 0.00 | 0.00 | 86 | 1022.0 | |
| 20260509060617 | 11 | 0.0 | 0.0 | 0.00 | 0.00 | 0.00 | 85 | 1021.9 | |
| 20260509060117 | 11 | 0.0 | 0.0 | 0.00 | 0.00 | 0.00 | 85 | 1021.8 | |
| 20260509055617 | 11 | 0.0 | 0.0 | 0.00 | 0.00 | 0.00 | 86 | 1021.8 | |
| 20260509055137 | 11 | 0.0 | 0.0 | 0.00 | 0.00 | 0.00 | 86 | 1021.8 | |
| 20260509054637 | 11 | 0.0 | 0.0 | 0.00 | 0.00 | 0.00 | 85 | 1021.7 | |
| 20260509054117 | 11 | 0.0 | 0.0 | 0.00 | 0.00 | 0.00 | 85 | 1021.8 | |
| 20260509053617 | 11 | 0.0 | 0.0 | 0.00 | 0.00 | 0.00 | 84 | 1021.8 | |
| 20260509053137 | 11 | 0.0 | 0.0 | 0.00 | 0.00 | 0.00 | 85 | 1021.7 | |
| 20260509052617 | 11 | 0.0 | 0.0 | 0.00 | 0.00 | 0.00 | 84 | 1021.9 | |
| 20260509052137 | 11 | 0.0 | 0.0 | 0.00 | 0.00 | 0.00 | 84 | 1021.7 | |
| 20260509051617 | 11 | 0.0 | 0.0 | 0.00 | 0.00 | 0.00 | 83 | 1021.8 | |
| 20260509051117 | 11 | 0.0 | 0.0 | 0.00 | 0.00 | 0.00 | 82 | 1021.7 | |
| 20260509050618 | 11 | 0.0 | 0.0 | 0.00 | 0.00 | 0.00 | 82 | 1021.6 | |
| 20260509050117 | 11 | 0.0 | 0.0 | 0.00 | 0.00 | 0.00 | 82 | 1021.6 | |
| 20260509045617 | 11 | 0.0 | 0.0 | 0.00 | 0.00 | 0.00 | 82 | 1021.8 | |
| 20260509045117 | 11 | 0.0 | 0.0 | 0.00 | 0.00 | 0.00 | 82 | 1021.7 | |
| 20260509044637 | 11 | 0.0 | 0.0 | 0.00 | 0.00 | 0.00 | 82 | 1021.6 | |
| 20260509044117 | 11 | 0.0 | 0.0 | 0.00 | 0.00 | 0.00 | 81 | 1021.6 | |
| 20260509043618 | 11 | 0.0 | 0.0 | 0.00 | 0.00 | 0.00 | 80 | 1021.5 | |
| 20260509043117 | 12 | 0.0 | 0.0 | 0.00 | 0.00 | 0.00 | 79 | 1021.5 | |
| 20260509042617 | 11 | 78 | 1.6 | 4.8 | 0.00 | 0.00 | 0.00 | 79 | 1021.6 |
| 20260509042117 | 11 | 0.0 | 0.0 | 0.00 | 0.00 | 0.00 | 80 | 1021.3 | |
| 20260509041617 | 12 | 0.0 | 0.0 | 0.00 | 0.00 | 0.00 | 78 | 1021.5 | |
| 20260509041117 | 12 | 0.0 | 0.0 | 0.00 | 0.00 | 0.00 | 78 | 1021.3 | |
| 20260509040616 | 12 | 0.0 | 0.0 | 0.00 | 0.00 | 0.00 | 77 | 1021.2 | |
| 20260509040118 | 12 | 0.0 | 0.0 | 0.00 | 0.00 | 0.00 | 77 | 1021.2 | |
| 20260509035638 | 12 | 97 | 0.0 | 1.6 | 0.00 | 0.00 | 0.00 | 75 | 1021.1 |
| 20260509035137 | 12 | 141 | 1.6 | 4.8 | 0.00 | 0.00 | 0.00 | 75 | 1021.1 |
| 20260509034637 | 12 | 0.0 | 0.0 | 0.00 | 0.00 | 0.00 | 74 | 1021.0 | |
| 20260509034117 | 12 | 0.0 | 0.0 | 0.00 | 0.00 | 0.00 | 74 | 1021.0 | |
| 20260509033617 | 12 | 0.0 | 0.0 | 0.00 | 0.00 | 0.00 | 74 | 1021.0 | |
| 20260509033117 | 13 | 0.0 | 0.0 | 0.00 | 0.00 | 0.00 | 73 | 1020.8 | |
| 20260509032617 | 13 | 0.0 | 0.0 | 0.00 | 0.00 | 0.00 | 72 | 1020.7 | |
| 20260509032116 | 13 | 0.0 | 0.0 | 0.00 | 0.00 | 0.00 | 71 | 1020.8 | |
| 20260509031618 | 13 | 0.0 | 0.0 | 0.00 | 0.00 | 0.00 | 69 | 1020.7 | |
| 20260509031118 | 13 | 89 | 0.0 | 1.6 | 0.00 | 0.00 | 0.00 | 69 | 1020.5 |
| 20260509030617 | 13 | 0.0 | 0.0 | 0.00 | 0.00 | 0.00 | 69 | 1020.4 | |
| 20260509030117 | 14 | 105 | 0.0 | 1.6 | 0.00 | 0.00 | 0.00 | 69 | 1020.6 |
| 20260509025617 | 14 | 91 | 0.0 | 1.6 | 0.00 | 0.00 | 0.00 | 67 | 1020.4 |
| 20260509025117 | 14 | 28 | 0.0 | 3.2 | 0.00 | 0.00 | 0.00 | 67 | 1020.4 |
| 20260509024617 | 14 | 0.0 | 0.0 | 0.00 | 0.00 | 0.00 | 67 | 1020.3 | |
| 20260509024137 | 14 | 81 | 1.6 | 3.2 | 0.00 | 0.00 | 0.00 | 65 | 1020.3 |
| 20260509023616 | 15 | 94 | 1.6 | 4.8 | 0.00 | 0.00 | 0.00 | 65 | 1020.2 |
| 20260509023117 | 15 | 83 | 1.6 | 3.2 | 0.00 | 0.00 | 0.00 | 64 | 1020.3 |
| 20260509022617 | 15 | 117 | 0.0 | 3.2 | 0.00 | 0.00 | 0.00 | 64 | 1020.2 |
| 20260509022117 | 15 | 0.0 | 0.0 | 0.00 | 0.00 | 0.00 | 63 | 1020.2 | |
| 20260509021617 | 15 | 0.0 | 0.0 | 0.00 | 0.00 | 0.00 | 63 | 1020.1 | |
| 20260509021117 | 15 | 81 | 1.6 | 3.2 | 0.00 | 0.00 | 0.00 | 61 | 1020.2 |
| 20260509020617 | 15 | 0.0 | 0.0 | 0.00 | 0.00 | 0.00 | 62 | 1020.1 | |
| 20260509020137 | 15 | 0.0 | 0.0 | 0.00 | 0.00 | 0.00 | 62 | 1020.2 | |
| 20260509015617 | 15 | 125 | 3.2 | 4.8 | 0.00 | 0.00 | 0.00 | 60 | 1020.3 |
| 20260509015117 | 15 | 122 | 1.6 | 1.6 | 0.00 | 0.00 | 0.00 | 61 | 1020.2 |
| 20260509014618 | 15 | 0.0 | 0.0 | 0.00 | 0.00 | 0.00 | 60 | 1020.1 | |
| 20260509014118 | 16 | 96 | 0.0 | 1.6 | 0.00 | 0.00 | 0.00 | 59 | 1020.2 |
| 20260509013617 | 16 | 80 | 0.0 | 1.6 | 0.00 | 0.00 | 0.00 | 58 | 1020.1 |
| 20260509013138 | 16 | 79 | 3.2 | 6.4 | 0.00 | 0.00 | 0.00 | 57 | 1020.2 |
| 20260509012617 | 16 | 192 | 1.6 | 6.4 | 0.00 | 0.00 | 0.00 | 58 | 1020.2 |
| 20260509012117 | 16 | 118 | 1.6 | 3.2 | 0.00 | 0.00 | 0.00 | 57 | 1020.1 |
| 20260509011617 | 17 | 83 | 1.6 | 3.2 | 0.00 | 0.00 | 0.00 | 57 | 1020.3 |
| 20260509011117 | 16 | 105 | 0.0 | 1.6 | 0.00 | 0.00 | 0.00 | 56 | 1020.1 |
| 20260509010617 | 16 | 107 | 0.0 | 1.6 | 0.00 | 0.00 | 0.00 | 58 | 1020.2 |
| 20260509010118 | 16 | 0.0 | 0.0 | 0.00 | 0.00 | 0.00 | 59 | 1020.2 | |
| 20260509005637 | 16 | 150 | 1.6 | 4.8 | 0.00 | 0.00 | 0.00 | 58 | 1020.3 |
| 20260509005117 | 16 | 0.0 | 0.0 | 0.00 | 0.00 | 0.00 | 58 | 1020.3 | |
| 20260509004637 | 16 | 94 | 0.0 | 1.6 | 0.00 | 0.00 | 0.00 | 58 | 1020.3 |
| 20260509004117 | 16 | 109 | 1.6 | 4.8 | 0.00 | 0.00 | 0.00 | 56 | 1020.3 |
| 20260509003617 | 17 | 256 | 3.2 | 4.8 | 0.00 | 0.00 | 0.00 | 55 | 1020.2 |
| 20260509003117 | 16 | 64 | 1.6 | 3.2 | 0.00 | 0.00 | 0.00 | 56 | 1020.2 |
| 20260509002617 | 16 | 93 | 1.6 | 3.2 | 0.00 | 0.00 | 0.00 | 57 | 1020.2 |
| 20260509002116 | 16 | 75 | 0.0 | 1.6 | 0.00 | 0.00 | 0.00 | 56 | 1020.4 |
| 20260509001616 | 16 | 102 | 1.6 | 3.2 | 0.00 | 0.00 | 0.00 | 56 | 1020.3 |
| 20260509001117 | 17 | 97 | 0.0 | 1.6 | 0.00 | 0.00 | 0.00 | 54 | 1020.2 |
| 20260509000617 | 17 | 129 | 1.6 | 4.8 | 0.00 | 0.00 | 0.00 | 53 | 1020.2 |
| 20260509000157 | 17 | 101 | 0.0 | 1.6 | 0.00 | 0.00 | 0.00 | 54 | 1020.2 |
| 20260508235617 | 17 | 358 | 3.2 | 6.4 | 0.00 | 0.00 | 0.00 | 52 | 1020.0 |
| 20260508235157 | 17 | 71 | 3.2 | 4.8 | 0.00 | 0.00 | 0.00 | 51 | 1020.0 |
| 20260508234617 | 18 | 96 | 0.0 | 1.6 | 0.00 | 0.00 | 0.00 | 48 | 1020.2 |
| 20260508234117 | 17 | 128 | 1.6 | 4.8 | 0.00 | 0.00 | 0.00 | 51 | 1020.1 |
| 20260508233617 | 16 | 174 | 1.6 | 3.2 | 0.00 | 0.00 | 0.00 | 52 | 1020.0 |
| 20260508233138 | 17 | 66 | 3.2 | 4.8 | 0.00 | 0.00 | 0.00 | 52 | 1020.1 |
| 20260508232617 | 16 | 48 | 4.8 | 9.7 | 0.00 | 0.00 | 0.00 | 53 | 1020.2 |
| 20260508232117 | 17 | 66 | 1.6 | 4.8 | 0.00 | 0.00 | 0.00 | 53 | 1020.0 |
| 20260508231617 | 17 | 65 | 0.0 | 3.2 | 0.00 | 0.00 | 0.00 | 52 | 1020.0 |
| 20260508231117 | 17 | 0.0 | 0.0 | 0.00 | 0.00 | 0.00 | 52 | 1020.1 | |
| 20260508230657 | 16 | 0.0 | 0.0 | 0.00 | 0.00 | 0.00 | 54 | 1020.2 | |
| 20260508230117 | 16 | 238 | 1.6 | 4.8 | 0.00 | 0.00 | 0.00 | 54 | 1020.3 |
| 20260508225617 | 16 | 101 | 0.0 | 3.2 | 0.00 | 0.00 | 0.00 | 55 | 1020.2 |
| 20260508225117 | 16 | 102 | 0.0 | 1.6 | 0.00 | 0.00 | 0.00 | 54 | 1020.2 |
| 20260508224637 | 16 | 137 | 1.6 | 4.8 | 0.00 | 0.00 | 0.00 | 52 | 1020.3 |
| 20260508224118 | 16 | 83 | 0.0 | 1.6 | 0.00 | 0.00 | 0.00 | 52 | 1020.4 |
| 20260508223637 | 17 | 348 | 0.0 | 9.7 | 0.00 | 0.00 | 0.00 | 48 | 1020.4 |
| 20260508223117 | 16 | 142 | 0.0 | 3.2 | 0.00 | 0.00 | 0.00 | 53 | 1020.3 |
| 20260508222617 | 17 | 103 | 1.6 | 3.2 | 0.00 | 0.00 | 0.00 | 52 | 1020.2 |
| 20260508222117 | 16 | 131 | 3.2 | 9.7 | 0.00 | 0.00 | 0.00 | 52 | 1020.3 |
| 20260508221637 | 16 | 116 | 1.6 | 3.2 | 0.00 | 0.00 | 0.00 | 54 | 1020.2 |
| 20260508221117 | 16 | 167 | 3.2 | 4.8 | 0.00 | 0.00 | 0.00 | 54 | 1020.2 |
| 20260508220617 | 16 | 83 | 3.2 | 6.4 | 0.00 | 0.00 | 0.00 | 52 | 1020.1 |
| 20260508220117 | 16 | 87 | 0.0 | 1.6 | 0.00 | 0.00 | 0.00 | 55 | 1020.2 |
| 20260508215637 | 16 | 92 | 0.0 | 1.6 | 0.00 | 0.00 | 0.00 | 55 | 1020.3 |
| 20260508215118 | 16 | 308 | 1.6 | 9.7 | 0.00 | 0.00 | 0.00 | 55 | 1020.4 |
| 20260508214637 | 16 | 135 | 0.0 | 1.6 | 0.00 | 0.00 | 0.00 | 53 | 1020.2 |
| 20260508214117 | 17 | 98 | 1.6 | 4.8 | 0.00 | 0.00 | 0.00 | 54 | 1020.3 |
| 20260508213617 | 16 | 160 | 3.2 | 4.8 | 0.00 | 0.00 | 0.00 | 53 | 1020.4 |
| 20260508213117 | 16 | 90 | 1.6 | 4.8 | 0.00 | 0.00 | 0.00 | 54 | 1020.3 |
| 20260508212617 | 15 | 108 | 1.6 | 6.4 | 0.00 | 0.00 | 0.00 | 56 | 1020.4 |
| 20260508212137 | 16 | 105 | 3.2 | 4.8 | 0.00 | 0.00 | 0.00 | 55 | 1020.5 |
| 20260508211636 | 16 | 109 | 0.0 | 1.6 | 0.00 | 0.00 | 0.00 | 55 | 1020.3 |
| 20260508211157 | 16 | 97 | 3.2 | 4.8 | 0.00 | 0.00 | 0.00 | 53 | 1020.4 |
| 20260508210618 | 16 | 144 | 1.6 | 6.4 | 0.00 | 0.00 | 0.00 | 55 | 1020.3 |
| 20260508210117 | 16 | 126 | 1.6 | 3.2 | 0.00 | 0.00 | 0.00 | 56 | 1020.1 |
| 20260508205617 | 16 | 148 | 3.2 | 11.3 | 0.00 | 0.00 | 0.00 | 53 | 1020.0 |
| 20260508205117 | 16 | 93 | 1.6 | 4.8 | 0.00 | 0.00 | 0.00 | 56 | 1020.2 |
| 20260508204617 | 16 | 84 | 1.6 | 4.8 | 0.00 | 0.00 | 0.00 | 58 | 1020.0 |
| 20260508204117 | 16 | 135 | 3.2 | 4.8 | 0.00 | 0.00 | 0.00 | 55 | 1020.2 |
| 20260508203617 | 15 | 127 | 3.2 | 9.7 | 0.00 | 0.00 | 0.00 | 55 | 1020.0 |
| 20260508203117 | 15 | 141 | 0.0 | 1.6 | 0.00 | 0.00 | 0.00 | 58 | 1020.1 |
| 20260508202617 | 15 | 140 | 1.6 | 3.2 | 0.00 | 0.00 | 0.00 | 57 | 1020.1 |
| 20260508202117 | 15 | 82 | 1.6 | 6.4 | 0.00 | 0.00 | 0.00 | 59 | 1020.1 |
| 20260508201618 | 15 | 101 | 1.6 | 4.8 | 0.00 | 0.00 | 0.00 | 59 | 1020.1 |